カタログに戻る

FREGAT DEB

LostUNKNOWN
NORAD 45849·DEBRIS·🇷🇺 Russia

打ち上げ Jul 18, 2011 から Baikonur Cosmodrome

Loading…

次のパス (今後24時間)

TLE

経年Source: Space-Track

元期: Aug 12, 2026, 03:43 UTC

1 45849U 11037CK  26224.15520404 -.00021509  00000-0 -63745-1 0  9994
2 45849  51.3019  44.9759 1627230 253.7008  87.9317 10.90009733 17178

AllMySatでFREGAT DEBをリアルタイム追跡

Download on the App Store